カタログに戻る

DELTA 1 DEB

運用中UNKNOWN
NORAD 42578·DEBRIS·🇺🇸 United States

打ち上げ Nov 6, 1973 から Vandenberg Space Force Base

Loading…

次のパス (今後24時間)

TLE

経年Source: Space-Track

元期: Aug 24, 2026, 13:45 UTC

1 42578U 73086HS  26236.57332969  .00001547  00000-0  18255-1 0  9992
2 42578 100.6626 102.9619 0830260 307.5351  45.2970 11.39243954 89050

AllMySatでDELTA 1 DEBをリアルタイム追跡

Download on the App Store